Location: Newark
(8.3667°S, 17.0167°E)
Time: 10:54:03
(UTC+00:00)

N. Korean satellite - Pass Details

Date: 18 November 2019
Orbit: 455 x 506 km, 97.2° (Epoch: 10 December)

Event Time Altitude Azimuth Distance (km) Brightness Sun altitude
Rises 03:39:44 0° 36° (NE) 2,544 10.4 -10.6°
Reaches altitude 10° 03:42:11 10° 53° (NE) 1,659 9.7 -10.0°
Maximum altitude 03:44:53 20° 102° (ESE) 1,152 9.7 -9.4°
Drops below altitude 10° 03:47:33 10° 151° (SSE) 1,647 10.1 -8.8°
Sets 03:49:58 0° 168° (SSE) 2,520 10.7 -8.2°
